(413) Edburga
ephemeris date magn radius delta ra dec elong phase
Today11 Jun 202616.03.361 AU3.065 AU12h28m+19°28'98.1°17.4°
Opposition15 Jun 202712.92.329 AU1.325 AU17h36m-11°48'168.5°5.0°
(413) Edburga - 2026-06-11
astro.vanbuitenen.nl


 
-1 year
-1 month
-1 day
Now
+1 day
+1 month
+1 year

The interactive orbit chart above shows the body's path through the solar system and its position at the given date. Green and blue lines are shown perpendicular to the ecliptic plane: Green if the path is above the ecliptic plane, blue if it is below. (Left-click and drag to rotate the view; Right-click and drag to move the view; Use scroll wheel to zoom in our out.)

The orbital elements of Edburga are:

            e (Eccentricity)                : 0.3423249
            a (Semimajor axis)              : 2.5829868
            i (Inclination)                 : 18.73553
            Ω (Longitude of ascending node) : 103.66894
            ω (Argument of perihelion)      : 252.81286
            M (Mean anomaly)                : 217.25634
            Epoch                           : 2026 Jun 09

            L (Longitude of perihelion)     : 175.58125
            B (Latitude of perihelion)      : -17.86992
            P (Orbital period in years)     : 4.15            
        

The light curve chart below shows the estimated development of the minor planet's magnitude.


The all-sky chart below shows the path of the minor planet over the same period as the light curve. The current position is marked yellow.





The following chart shows the path of the minor planet in the next few days. The field of view is optimized for (~10x50) binoculars and finderscopes.




Ephemerides:
Date       Time       RA (2000)    DEC (2000)    delta   radius  elong  phase   PA    magn
2026-06-11 00:00 UT   12 28 04.0   +19 28 46     3.065    3.361   98.1   17.4   118   16.0 
2026-06-11 09:36 UT   12 28 07.4   +19 25 51     3.070    3.360   97.7   17.4   118   16.0 
2026-06-12 00:00 UT   12 28 12.7   +19 21 28     3.077    3.359   97.2   17.4   118   16.0 
2026-06-13 00:00 UT   12 28 22.6   +19 14 04     3.089    3.358   96.4   17.5   117   16.0 
2026-06-14 00:00 UT   12 28 33.5   +19 06 35     3.101    3.357   95.6   17.5   117   16.0 
2026-06-15 00:00 UT   12 28 45.4   +18 59 02     3.113    3.355   94.8   17.6   117   16.1 
2026-06-16 00:00 UT   12 28 58.5   +18 51 24     3.126    3.354   94.0   17.6   116   16.1 
2026-06-17 00:00 UT   12 29 12.5   +18 43 41     3.138    3.353   93.3   17.6   116   16.1 
2026-06-18 00:00 UT   12 29 27.6   +18 35 53     3.150    3.351   92.5   17.6   116   16.1 
2026-06-19 00:00 UT   12 29 43.7   +18 28 01     3.162    3.350   91.7   17.6   115   16.1 
2026-06-20 00:00 UT   12 30 00.8   +18 20 05     3.174    3.348   90.9   17.7   115   16.1 
2026-06-21 00:00 UT   12 30 18.9   +18 12 05     3.187    3.347   90.1   17.7   115   16.1 
2026-06-22 00:00 UT   12 30 38.0   +18 04 01     3.199    3.346   89.4   17.7   114   16.1 
2026-06-23 00:00 UT   12 30 58.0   +17 55 53     3.211    3.344   88.6   17.7   114   16.1 
2026-06-24 00:00 UT   12 31 19.0   +17 47 41     3.223    3.343   87.8   17.7   114   16.1 
2026-06-25 00:00 UT   12 31 40.9   +17 39 26     3.236    3.341   87.1   17.7   114   16.1 
2026-06-26 00:00 UT   12 32 03.8   +17 31 08     3.248    3.340   86.3   17.7   113   16.1 
2026-06-27 00:00 UT   12 32 27.6   +17 22 46     3.260    3.338   85.5   17.7   113   16.1 
2026-06-28 00:00 UT   12 32 52.3   +17 14 20     3.272    3.337   84.8   17.7   113   16.2 
2026-06-29 00:00 UT   12 33 17.9   +17 05 52     3.284    3.335   84.0   17.6   113   16.2 
2026-06-30 00:00 UT   12 33 44.3   +16 57 20     3.296    3.334   83.3   17.6   112   16.2 
2026-07-01 00:00 UT   12 34 11.7   +16 48 46     3.308    3.332   82.5   17.6   112   16.2 
2026-07-02 00:00 UT   12 34 39.9   +16 40 09     3.321    3.331   81.8   17.6   112   16.2 
2026-07-03 00:00 UT   12 35 08.9   +16 31 29     3.333    3.329   81.0   17.6   111   16.2 
2026-07-04 00:00 UT   12 35 38.8   +16 22 46     3.345    3.328   80.3   17.5   111   16.2 
2026-07-05 00:00 UT   12 36 09.5   +16 14 00     3.356    3.326   79.6   17.5   111   16.2 
2026-07-06 00:00 UT   12 36 41.1   +16 05 12     3.368    3.325   78.8   17.5   111   16.2 
2026-07-07 00:00 UT   12 37 13.4   +15 56 22     3.380    3.323   78.1   17.4   110   16.2 
2026-07-08 00:00 UT   12 37 46.6   +15 47 29     3.392    3.322   77.4   17.4   110   16.2 
2026-07-09 00:00 UT   12 38 20.5   +15 38 34     3.404    3.320   76.7   17.3   110   16.2 
2026-07-10 00:00 UT   12 38 55.2   +15 29 36     3.416    3.318   75.9   17.3   110   16.2 
2026-07-11 00:00 UT   12 39 30.7   +15 20 37     3.427    3.317   75.2   17.2   109   16.2 


    Terminology:
            
    delta:  distance between minor planet and earth in AU
    radius: distance between minor planet and sun in AU
    magn:   magnitude (brightness) estimate    
    ra:     right ascension in hours (24h = 360deg)
    dec:    declination in degrees
    elong:  elongation in degrees (angle sun-earth-minor planet)    
    phase:  phase angle in degrees (angle sun-minor planet-earth)        
    AU:     Astronomical Unit (mean distance between earth and sun: 149597870.7 km
    

Orbital elements provided by the MPC (Minor Planet Center).
Calculations by a modified version of AAPlus, a C# implementation of the AA+ project by PJ Naughter from the algorithms presented in the book "Astronomical Algorithms" by Jean Meeus.
NGC2000 dso catalog and star labels from VizieR as provided by the Strasbourg astronomical Data Center.
Tycho2 catalog from the ESO archive.